Weather Roundup
Issued by NWS

Home | Current Version | Previous Version | Text Only | Print | Product List | Glossary On
Versions: 1 2 3 4 5 6 7 8 9 10 11 12 13 14 15 16 17 18 19 20 21 22 23 24 25 26 27 28 29 30 31 32 33 34 35 36 37 38 39 40 41 42 43 44 45 46 47 48 49 50
000
NZUS93 KARX 241859
HRRWXR

CURRENT HOURLY OBSERVATIONS ACROSS
MUCH OF THE UPPER MISSISSIPPI VALLEY
NATIONAL WEATHER SERVICE LA CROSSE WI
200 PM CDT THU APR 24 2014


...SOUTHEAST MINNESOTA...


CITY           SKY/WX    TMP DP  RH WIND       PRES   REMARKS
ROCHESTER      CLOUDY    42  40  92 SE10      29.67F FOG
ROCHESTER/MAYO CLOUDY    41  40  96 E8        29.67F
WINONA         RAIN      43  41  93 SE8       29.71F
AUSTIN         CLOUDY    45  43  93 CALM      29.66F FOG
ALBERT LEA     CLOUDY    45  45 100 SW3       29.66S FOG
DODGE CENTER   CLOUDY    45  45 100 SE10      29.66F FOG
PRESTON        LGT RAIN  43  42  96 SE6       29.68S
OWATONNA       CLOUDY    43  41  93 CALM      29.68S FOG
FARIBAULT      CLOUDY    45  39  81 CALM      29.68F HAZE
$$

...ELSEWHERE IN MINNESOTA...


CITY           SKY/WX    TMP DP  RH WIND       PRES   REMARKS
MINNEAPOLIS    LGT RAIN  42  42 100 SE6       29.71S FOG
INTNL FALLS    LGT RAIN  38  36  92 E10       29.82S WCI  31
DULUTH         HVY SNOW  33  31  92 E23G31    29.79F VSB 1/4 WCI  21
RED WING       LGT RAIN  43  41  93 SE9       29.70S
REDWOOD FALLS  CLOUDY    46  43  89 CALM      29.70R
MANKATO        CLOUDY    43  39  87 CALM      29.70R
WORTHINGTON    PTSUNNY   50  39  66 N17       29.72F
FAIRMONT       CLOUDY    45  39  81 NW7       29.70F
$$

...SOUTHWEST WISCONSIN...


CITY           SKY/WX    TMP DP  RH WIND       PRES   REMARKS
LA CROSSE      LGT RAIN  45  41  86 SE10      29.71F
PRAIRIE DU CHI CLOUDY    53  44  72 SE12G18   29.70S
BOSCOBEL       LGT RAIN  53  46  77 VRB3      29.72F
LONE ROCK      NOT AVBL
PLATTEVILLE    CLOUDY    54  45  71 SE10G17   29.74F
FORT MC COY    LGT RAIN  43  41  91 SE7G16    29.75S
VIROQUA        CLOUDY    44  43  98 SE14      29.71R
WIS DELLS      DRIZZLE   46  40  80 E9        29.78F
$$

...ELSEWHERE IN WISCONSIN...


CITY           SKY/WX    TMP DP  RH WIND       PRES   REMARKS
MILWAUKEE      CLOUDY    50  33  52 SE20G30   29.87F
MADISON        LGT RAIN  52  44  74 E5        29.79S
GREEN BAY      CLOUDY    43  39  86 E13       29.94F
EAU CLAIRE     NOT AVBL
BLACK RVR FLS  LGT RAIN  43  42  97 E9        29.74S
MEDFORD        LGT RAIN  37  36  94 E16G23    29.78F WCI  28
WAUSAU         LGT RAIN  40  38  93 E21G31    29.79F WCI  30
WIS RAPIDS     RAIN      43  39  86 E17G25    29.79F FOG
MARSHFIELD     LGT RAIN  42  38  85 SE21G29   29.76F FOG
RICE LAKE      DRIZZLE   40  38  93 E12       29.76F WCI  33
$$

...NORTHEAST IOWA...


CITY           SKY/WX    TMP DP  RH WIND       PRES   REMARKS
WATERLOO       CLOUDY    49  46  90 CALM      29.65F
DUBUQUE        LGT RAIN  52  47  83 S18G25    29.71F
DECORAH        LGT RAIN  46  46 100 SE6G12    29.67F
MASON CITY     NOT AVBL
CHARLES CITY   CLOUDY    46  45  93 S9        29.66F
OELWEIN        CLOUDY   N/A N/A N/A S15       29.67F FOG
$$

...ELSEWHERE IN IOWA...


CITY           SKY/WX    TMP DP  RH WIND       PRES   REMARKS
DES MOINES     CLOUDY    54  50  86 NW10      29.66S
IOWA CITY      LGT RAIN  52  50  93 SE14      29.68F FOG
FORT DODGE     CLOUDY    52  45  76 NW9G16    29.68S
MARSHALLTOWN   CLOUDY    52  50  93 S7        29.65S
CEDAR RAPIDS   LGT RAIN  51  48  89 S15G23    29.66F FOG
$$

...NORTHERN ILLINOIS...


CITY           SKY/WX    TMP DP  RH WIND       PRES   REMARKS
CHICAGO-OHARE  CLOUDY    61  32  33 S23       29.84F
DUPAGE         CLOUDY    60  35  39 SE23      29.82F
CHICAGO-MIDWAY CLOUDY    61  33  35 SE18G31   29.86F
MOLINE         CLOUDY    59  46  62 S13G20    29.74F
ROCKFORD       LGT RAIN  58  41  53 S23G30    29.81S
STERLING       CLOUDY    54  45  71 CALM      29.79S
PEORIA         CLOUDY    71  39  31 S18G25    29.76F
$$

NOTE: "FAIR" INDICATES FEW OR NO CLOUDS BELOW 12,000 FEET WITH NO
SIGNIFICANT WEATHER AND/OR OBSTRUCTIONS TO VISIBILITY. WIND
SPEEDS ARE IN MILES-PER-HOUR.



USA.gov is the U.S. government's official web portal to all federal, state and local government web resources and services.